[[{"header":{"parameterUnit":"m.s-1","parameterCategory":2,"la1":30.2991,"la2":30.254,"lo1":-89.0895,"lo2":-89.0444,"dy":0.0017,"dx":0.0017,"nx":28,"ny":28,"refTime":"2023-08-29T09:00:00:Z","depth":"0","parameterNumber":2,"parameterNumberName":"U-component_of_CURRENTS"},"data":[0,0,0,0,0,0,0,0,0,0,0,0,0,0,0,0,0,0,0,0,0,0,0,0,0,0,0,0,0,0,0,0,0,0,0,0,0,0,0,0,0,0,0,0,0,0,0,0,0,0,0,0,0,0,0,0,0,0,-0.2348,-0.2348,0,-0.239,-0.239,-0.239,-0.2376,-0.2375,-0.2374,-0.2373,-0.2416,-0.2418,-0.2419,0,0,0,0,0,0,0,0,0,0,0,0,0,-0.2261,-0.2262,-0.2348,-0.2348,-0.2349,-0.239,-0.239,-0.239,-0.2376,-0.2375,-0.2374,-0.2373,-0.2415,-0.2417,-0.2419,0,0,0,0,0,0,0,0,0,0,0,0,0,-0.2298,-0.2263,-0.2348,-0.2348,-0.2349,-0.2389,-0.239,-0.239,-0.2376,-0.2375,-0.2374,-0.2373,-0.2414,-0.2417,-0.242,-0.2458,0,0,-0.2428,-0.2429,0,0,0,0,0,0,0,0,-0.2296,-0.2301,-0.2348,-0.2348,-0.2349,-0.2378,-0.2375,-0.2414,-0.2376,-0.2363,-0.2373,-0.2372,-0.2405,-0.2409,-0.2416,-0.246,-0.2462,-0.2428,-0.243,-0.2431,-0.2432,0,0,0,0,0,0,0,-0.2293,-0.2299,-0.2362,-0.2348,-0.235,-0.2349,-0.2352,-0.2382,-0.2388,-0.2364,-0.2364,-0.2372,-0.2405,-0.2413,-0.2417,-0.2463,-0.2428,-0.2431,-0.2432,-0.2433,-0.2476,-0.2476,0,0,0,0,0,0,-0.2294,-0.2297,-0.2361,-0.2364,-0.2322,-0.2351,-0.2355,-0.2368,-0.2388,-0.2391,-0.2373,-0.2372,-0.2409,-0.2414,-0.2418,-0.2433,-0.2431,-0.2434,-0.2435,-0.2477,-0.2476,-0.2476,0,0,0,0,0,0,-0.2292,-0.2299,-0.2359,-0.2332,-0.234,-0.2354,-0.2369,-0.237,-0.2375,-0.2395,-0.2397,-0.2377,-0.2409,-0.2415,-0.243,-0.2436,-0.2435,-0.2437,-0.2477,-0.2476,-0.2476,-0.2483,0,0,0,0,0,0,-0.2289,-0.2298,-0.2305,-0.2333,-0.2342,-0.2383,-0.237,-0.2371,-0.2383,-0.2381,-0.24,-0.2402,-0.2408,-0.2426,-0.2433,-0.2439,-0.2439,-0.2478,-0.2477,-0.2476,-0.2483,-0.2482,-0.2482,0,0,0,0,0,-0.2286,-0.2301,-0.2305,-0.2313,-0.2352,-0.2384,-0.2388,-0.2392,-0.2384,-0.2391,-0.2391,-0.2401,-0.2424,-0.2428,-0.2436,-0.2444,-0.2478,-0.2477,-0.2476,-0.2484,-0.2483,-0.2482,0,0,0,0,0,0,-0.2268,-0.2302,-0.2307,-0.2332,-0.2356,-0.2382,-0.239,-0.2396,-0.2403,-0.2398,-0.2407,-0.2411,-0.2422,-0.2431,-0.2435,-0.2449,-0.2449,-0.2449,-0.2452,-0.2451,-0.245,-0.2444,-0.2442,0,0,0,0,0,-0.2269,-0.2285,-0.232,-0.2337,-0.2351,-0.2371,-0.2383,-0.2391,-0.2404,-0.2406,-0.2416,-0.2421,-0.2427,-0.2436,-0.2445,-0.2467,-0.2458,-0.2471,-0.247,-0.247,-0.2467,-0.2454,-0.2452,-0.2472,-0.2472,-0.2472,0,0,-0.2266,-0.2287,-0.2295,-0.2334,-0.2351,-0.2374,-0.2375,-0.2398,-0.2409,-0.2412,-0.2423,-0.2424,-0.243,-0.2441,-0.2447,-0.245,-0.2457,-0.2468,-0.2468,-0.2465,-0.2453,-0.2451,-0.245,-0.2471,-0.2471,-0.2471,0,0,-0.227,-0.2289,-0.2304,-0.2327,-0.236,-0.2376,-0.2383,-0.2412,-0.2414,-0.2434,-0.2425,-0.2423,-0.245,-0.2443,-0.2446,-0.2448,-0.2452,-0.2454,-0.2454,-0.2442,-0.2441,-0.2439,-0.242,-0.2417,-0.2457,-0.2457,-0.2457,0,-0.2264,-0.229,-0.2313,-0.2337,-0.2353,-0.2376,-0.2397,-0.2411,-0.2436,-0.2439,-0.2435,-0.2442,-0.2446,-0.2448,-0.244,-0.2448,-0.2441,-0.2461,-0.2442,-0.2441,-0.2439,-0.242,-0.2416,-0.2457,-0.2457,-0.2457,-0.2457,0,-0.228,-0.2302,-0.2314,-0.2348,-0.237,-0.2392,-0.242,-0.2435,-0.2441,-0.245,-0.2453,-0.245,-0.2451,-0.245,-0.2449,-0.244,-0.2438,-0.2442,-0.2447,-0.2438,-0.2418,-0.2414,-0.2457,-0.2457,-0.2457,-0.2457,0,0,-0.2255,-0.2314,-0.2314,-0.2333,-0.2377,-0.2397,-0.242,-0.2446,-0.2455,-0.2465,-0.247,-0.2462,-0.2456,-0.2456,-0.2451,-0.2438,-0.2416,-0.2437,-0.2437,-0.2423,-0.2386,-0.2304,-0.2291,-0.2423,-0.2422,-0.2422,-0.2376,0,-0.2255,-0.2294,-0.2325,-0.2357,-0.2378,-0.2411,-0.2431,-0.2455,-0.247,-0.2482,-0.2473,-0.2475,-0.2461,-0.246,-0.2445,-0.2434,-0.2408,-0.2428,-0.2393,-0.2392,-0.2324,-0.2284,-0.2195,-0.2139,-0.2372,-0.2371,-0.2371,0,-0.2251,-0.2278,-0.2309,-0.2361,-0.2373,-0.2392,-0.2425,-0.245,-0.2475,-0.2488,-0.2488,-0.2488,-0.2475,-0.246,-0.2423,-0.2441,-0.2406,-0.2388,-0.2386,-0.2303,-0.2301,-0.2187,-0.2124,-0.21,-0.2365,-0.2365,-0.2366,0,-0.2204,-0.2264,-0.2284,-0.2301,-0.2363,-0.2375,-0.2404,-0.2438,-0.2456,-0.2485,-0.2494,-0.2491,-0.2479,-0.2452,-0.2407,-0.2422,-0.2358,-0.2376,-0.2261,-0.2255,-0.2167,-0.2153,-0.2078,-0.2325,-0.2325,-0.2325,-0.2325,0,-0.2183,-0.2197,-0.2262,-0.2269,-0.229,-0.2345,-0.2364,-0.2399,-0.2439,-0.245,-0.2482,-0.2476,-0.2475,-0.2442,-0.2409,-0.2312,-0.2354,-0.2243,-0.223,-0.2164,-0.2152,-0.2118,-0.214,-0.2323,-0.2323,-0.2324,-0.2324,0,-0.2119,-0.2166,-0.2191,-0.225,-0.2266,-0.2276,-0.2335,-0.2351,-0.24,-0.2415,-0.2423,-0.2457,-0.2414,-0.2388,-0.2339,-0.2292,-0.2179,-0.2176,-0.2092,-0.2069,-0.194,-0.1965,-0.1879,-0.1829,-0.2052,-0.2049,-0.2047,0,-0.2088,-0.2094,-0.2154,-0.2164,-0.2186,-0.2215,-0.2235,-0.231,-0.2333,-0.2387,-0.2387,-0.2369,-0.2324,-0.2229,-0.2149,-0.2058,-0.2062,-0.1926,-0.1925,-0.1896,-0.1918,-0.1947,-0.1914,-0.1817,-0.1813,-0.181,-0.1807,0,-0.2014,-0.2036,-0.2052,-0.2078,-0.2099,-0.2126,-0.2163,-0.2176,-0.2257,-0.2267,-0.2263,-0.2234,-0.2156,-0.2025,-0.1916,-0.1858,-0.1878,-0.1858,-0.1853,-0.1733,-0.1736,-0.1693,-0.1893,-0.178,-0.1783,-0.1785,-0.1786,-0.1787,-0.194,-0.1934,-0.1956,-0.1969,-0.1997,-0.2002,-0.1975,-0.2027,-0.2028,-0.2011,-0.2076,-0.1998,-0.1937,-0.1767,-0.1704,-0.1574,-0.1647,-0.1537,-0.1573,-0.1607,-0.154,-0.1665,-0.1523,-0.1524,-0.1525,-0.1526,-0.1527,0,-0.1835,-0.1837,-0.1848,-0.1848,-0.1823,-0.1881,-0.1894,-0.1844,-0.1789,-0.182,-0.1777,-0.1707,-0.1573,-0.1531,-0.1404,-0.1324,-0.1313,-0.1303,-0.1339,-0.1321,-0.1438,-0.1408,-0.1203,-0.1203,-0.1203,-0.1203,-0.1203,-0.1204,-0.1775,-0.1739,-0.1746,-0.1659,-0.1657,-0.1573,-0.1545,-0.1499,-0.149,-0.1408,-0.1389,-0.1405,-0.1378,-0.1411,-0.1286,-0.1217,-0.1203,-0.1155,-0.1193,-0.1301,-0.1327,-0.1351,-0.1326,-0.1108,-0.1108,-0.1027,-0.1027,-0.1026]},{"header":{"parameterUnit":"m.s-1","parameterCategory":2,"la1":30.2991,"la2":30.254,"lo1":-89.0895,"lo2":-89.0444,"dy":0.0017,"dx":0.0017,"nx":28,"ny":28,"refTime":"2023-08-29T09:00:00:Z","depth":"0","parameterNumber":3,"parameterNumberName":"V-component_of_CURRENTS"},"data":[0,0,0,0,0,0,0,0,0,0,0,0,0,0,0,0,0,0,0,0,0,0,0,0,0,0,0,0,0,0,0,0,0,0,0,0,0,0,0,0,0,0,0,0,0,0,0,0,0,0,0,0,0,0,0,0,0,0,-0.0345,-0.0344,0,-0.0284,-0.0283,-0.0282,-0.023,-0.023,-0.0229,-0.0229,-0.01,-0.0097,-0.0094,0,0,0,0,0,0,0,0,0,0,0,0,0,-0.0375,-0.0375,-0.0345,-0.0344,-0.0344,-0.0284,-0.0283,-0.0282,-0.023,-0.023,-0.0229,-0.0229,-0.0101,-0.0097,-0.0094,0,0,0,0,0,0,0,0,0,0,0,0,0,-0.0342,-0.0375,-0.0345,-0.0312,-0.0308,-0.0284,-0.0283,-0.0282,-0.023,-0.023,-0.0229,-0.0228,-0.0102,-0.0098,-0.0093,-0.0079,0,0,-0.0079,-0.0077,0,0,0,0,0,0,0,0,-0.0344,-0.034,-0.0317,-0.0314,-0.031,-0.0265,-0.0246,-0.0211,-0.0231,-0.0259,-0.0229,-0.0228,-0.015,-0.0142,-0.0131,-0.0073,-0.0068,-0.0079,-0.0076,-0.0074,-0.0073,0,0,0,0,0,0,0,-0.0346,-0.0343,-0.032,-0.0317,-0.0312,-0.0285,-0.028,-0.0239,-0.0207,-0.0256,-0.0252,-0.0248,-0.0147,-0.0135,-0.0127,-0.0066,-0.0079,-0.0075,-0.0072,-0.0071,0.0009,0.0009,0,0,0,0,0,0,-0.0359,-0.0345,-0.0322,-0.0318,-0.0327,-0.0286,-0.028,-0.0279,-0.0209,-0.0198,-0.0249,-0.0246,-0.0143,-0.0133,-0.0122,-0.0101,-0.0074,-0.007,-0.0068,0.001,0.0009,0.0008,0,0,0,0,0,0,-0.036,-0.0358,-0.0324,-0.0331,-0.0325,-0.0286,-0.0286,-0.0278,-0.0265,-0.0204,-0.0192,-0.0243,-0.0142,-0.0129,-0.0097,-0.0096,-0.0068,-0.0064,0.001,0.001,0.0009,-0.0059,0,0,0,0,0,0,-0.0361,-0.0359,-0.0364,-0.0332,-0.0325,-0.0316,-0.0286,-0.0278,-0.0264,-0.026,-0.0195,-0.0183,-0.0141,-0.0104,-0.0092,-0.0089,-0.006,0.0011,0.001,0.0009,-0.0056,-0.0062,-0.0068,0,0,0,0,0,-0.0363,-0.0376,-0.0365,-0.0362,-0.0333,-0.0317,-0.0311,-0.028,-0.0265,-0.0264,-0.0226,-0.0185,-0.0102,-0.0101,-0.0087,-0.0083,0.0012,0.001,0.0009,-0.0054,-0.0061,-0.0068,0,0,0,0,0,0,-0.0392,-0.0371,-0.0358,-0.0364,-0.0344,-0.0308,-0.0307,-0.0286,-0.0256,-0.0251,-0.0192,-0.0177,-0.0149,-0.0111,-0.0112,-0.0065,-0.0038,-0.0037,-0.0091,-0.0097,-0.0103,-0.0111,-0.0057,0,0,0,0,0,-0.0403,-0.0406,-0.0379,-0.0384,-0.0377,-0.0343,-0.0333,-0.0313,-0.0283,-0.0269,-0.0225,-0.0181,-0.0145,-0.0119,-0.0082,-0.0055,-0.0012,-0.0044,-0.0049,-0.0054,-0.0053,-0.0004,-0.0005,0.0004,0.0004,0.0004,0,0,-0.0414,-0.0405,-0.0405,-0.039,-0.0372,-0.0371,-0.0335,-0.0326,-0.0321,-0.0259,-0.024,-0.02,-0.0144,-0.0118,-0.0101,-0.0084,-0.0034,-0.0056,-0.0061,-0.0056,-0.0006,-0.0006,-0.0007,0.0003,0.0003,0.0004,0,0,-0.0447,-0.0433,-0.0448,-0.0437,-0.0418,-0.0396,-0.0396,-0.0364,-0.0345,-0.0324,-0.0281,-0.0245,-0.0188,-0.0148,-0.012,-0.0134,-0.007,-0.0122,-0.0148,-0.0102,-0.0102,-0.0101,-0.0047,-0.0041,-0.012,-0.012,-0.012,0,-0.0463,-0.0478,-0.0449,-0.0461,-0.0458,-0.0411,-0.0425,-0.0399,-0.0361,-0.0345,-0.0328,-0.0248,-0.0201,-0.0161,-0.0167,-0.0145,-0.0107,-0.0127,-0.0109,-0.0107,-0.0106,-0.005,-0.0042,-0.0123,-0.0123,-0.0123,-0.0122,0,-0.0506,-0.0516,-0.0525,-0.0523,-0.0513,-0.0518,-0.0481,-0.0466,-0.0436,-0.0403,-0.0362,-0.0303,-0.0253,-0.0233,-0.0201,-0.0168,-0.0141,-0.0126,-0.0092,-0.0111,-0.005,-0.0041,-0.0128,-0.0127,-0.0126,-0.0125,0,0,-0.055,-0.0556,-0.056,-0.057,-0.0548,-0.0546,-0.0534,-0.0508,-0.0495,-0.0447,-0.0423,-0.0362,-0.0322,-0.0289,-0.0241,-0.0196,-0.0151,-0.0161,-0.0157,-0.0108,-0.0041,0.0007,0.0022,-0.0135,-0.0134,-0.0133,-0.0003,0,-0.0594,-0.0638,-0.0621,-0.0649,-0.0666,-0.0621,-0.0613,-0.0578,-0.0535,-0.0497,-0.0424,-0.0384,-0.0345,-0.032,-0.0271,-0.0177,-0.0132,-0.0187,-0.0029,-0.0024,0.002,0.0033,0.006,0.0181,0.0006,0.0008,0.0009,0,-0.0644,-0.0666,-0.071,-0.0714,-0.0716,-0.0719,-0.0693,-0.0678,-0.0607,-0.0571,-0.0512,-0.0449,-0.0368,-0.034,-0.0191,-0.0229,-0.0147,-0.0074,-0.0068,0.0009,0.0041,0.0172,0.0204,0.0315,0.0023,0.0022,0.0021,0,-0.0698,-0.0726,-0.0765,-0.0769,-0.0763,-0.0768,-0.0757,-0.0703,-0.0683,-0.0612,-0.0583,-0.0483,-0.0417,-0.0312,-0.0159,-0.0176,0.0013,0.0011,0.0132,0.0137,0.0208,0.0218,0.0368,0.0104,0.0104,0.0103,0.0103,0,-0.0755,-0.0784,-0.0795,-0.0817,-0.0852,-0.0822,-0.0832,-0.0803,-0.0745,-0.0711,-0.0626,-0.0565,-0.0407,-0.0277,-0.0161,0.0028,0.0015,0.0138,0.0176,0.0185,0.0191,0.0329,0.0368,0.0108,0.0107,0.0106,0.0105,0,-0.0809,-0.0817,-0.0861,-0.0874,-0.0881,-0.0904,-0.0891,-0.0885,-0.0827,-0.0777,-0.0755,-0.0606,-0.0429,-0.0264,-0.0059,0.0042,0.0286,0.0267,0.0274,0.031,0.0508,0.054,0.0733,0.081,0.0418,0.042,0.0422,0,-0.0842,-0.0871,-0.0912,-0.094,-0.095,-0.0973,-0.0981,-0.0936,-0.0913,-0.0791,-0.0761,-0.0584,-0.0434,-0.0114,0.0097,0.0322,0.0393,0.0467,0.0435,0.0539,0.0602,0.0615,0.0666,0.0508,0.051,0.0512,0.0514,0,-0.0898,-0.091,-0.0945,-0.1008,-0.1034,-0.1058,-0.1057,-0.1046,-0.0965,-0.0892,-0.0743,-0.0612,-0.0296,-0.0002,0.0282,0.0404,0.0554,0.0511,0.0621,0.0693,0.0716,0.0801,0.0405,0.053,0.0529,0.0527,0.0527,0.0526,-0.0929,-0.0971,-0.1016,-0.1068,-0.1101,-0.1119,-0.1115,-0.1074,-0.101,-0.085,-0.0729,-0.0482,-0.0092,0.0326,0.0472,0.0761,0.0713,0.0827,0.0862,0.0869,0.0932,0.0577,0.0736,0.0735,0.0735,0.0735,0.0734,0,-0.0965,-0.101,-0.107,-0.1123,-0.1154,-0.116,-0.1141,-0.109,-0.0986,-0.0806,-0.0624,-0.0159,0.0217,0.0554,0.0956,0.1101,0.1124,0.1162,0.1184,0.1222,0.0921,0.0912,0.1114,0.1114,0.1113,0.1113,0.1113,0.1113,-0.0985,-0.1052,-0.1085,-0.1146,-0.1175,-0.1173,-0.1148,-0.1042,-0.0901,-0.0571,-0.028,-0.0044,0.0436,0.1036,0.1388,0.1408,0.1529,0.1508,0.1584,0.1363,0.1333,0.1305,0.1307,0.1588,0.1589,0.1871,0.1873,0.1876]}],[{"header":{"parameterUnit":"m.s-1","parameterCategory":2,"la1":30.2991,"la2":30.254,"lo1":-89.0895,"lo2":-89.0444,"dy":0.0017,"dx":0.0017,"nx":28,"ny":28,"refTime":"2023-08-29T09:00:00:Z","depth":"2","parameterNumber":2,"parameterNumberName":"U-component_of_CURRENTS"},"data":[0,0,0,0,0,0,0,0,0,0,0,0,0,0,0,0,0,0,0,0,0,0,0,0,0,0,0,0,0,0,0,0,0,0,0,0,0,0,0,0,0,0,0,0,0,0,0,0,0,0,0,0,0,0,0,0,0,0,-0.2066,-0.2067,0,-0.2104,-0.2104,-0.2105,-0.2097,-0.2097,-0.2096,-0.2096,-0.2142,-0.2144,-0.2145,0,0,0,0,0,0,0,0,0,0,0,0,0,-0.1992,-0.1993,-0.2066,-0.2067,-0.2067,-0.2104,-0.2104,-0.2105,-0.2097,-0.2097,-0.2096,-0.2095,-0.2141,-0.2144,-0.2146,0,0,0,0,0,0,0,0,0,0,0,0,0,-0.2025,-0.1993,-0.2066,-0.2069,-0.207,-0.2104,-0.2104,-0.2105,-0.2097,-0.2097,-0.2096,-0.2095,-0.2141,-0.2143,-0.2146,-0.2178,0,0,-0.2154,-0.2155,0,0,0,0,0,0,0,0,-0.2023,-0.2027,-0.2068,-0.2069,-0.207,-0.2097,-0.2095,-0.213,-0.2098,-0.2085,-0.2096,-0.2095,-0.213,-0.2133,-0.2139,-0.218,-0.2182,-0.2154,-0.2156,-0.2157,-0.2157,0,0,0,0,0,0,0,-0.202,-0.2025,-0.2079,-0.2069,-0.207,-0.2071,-0.2074,-0.2102,-0.211,-0.2086,-0.2086,-0.2094,-0.213,-0.2137,-0.214,-0.2182,-0.2154,-0.2156,-0.2158,-0.2159,-0.2207,-0.2207,0,0,0,0,0,0,-0.202,-0.2024,-0.2078,-0.2081,-0.2046,-0.2073,-0.2077,-0.2087,-0.2109,-0.2113,-0.2094,-0.2093,-0.2133,-0.2137,-0.2142,-0.2162,-0.2157,-0.2159,-0.2161,-0.2208,-0.2207,-0.2207,0,0,0,0,0,0,-0.2019,-0.2025,-0.2077,-0.2054,-0.2061,-0.2075,-0.2087,-0.2089,-0.2096,-0.2116,-0.2118,-0.21,-0.2132,-0.2138,-0.2157,-0.2165,-0.216,-0.2163,-0.2208,-0.2207,-0.2207,-0.2215,0,0,0,0,0,0,-0.2017,-0.2024,-0.2031,-0.2054,-0.2062,-0.2098,-0.2088,-0.209,-0.2103,-0.2102,-0.2123,-0.2126,-0.2132,-0.2153,-0.216,-0.2168,-0.2165,-0.2208,-0.2208,-0.2207,-0.2216,-0.2215,-0.2215,0,0,0,0,0,-0.2014,-0.2027,-0.2031,-0.2038,-0.2071,-0.2099,-0.2103,-0.2109,-0.2104,-0.2112,-0.2116,-0.2125,-0.2154,-0.2156,-0.2164,-0.2173,-0.2208,-0.2208,-0.2207,-0.2216,-0.2215,-0.2215,0,0,0,0,0,0,-0.1999,-0.2028,-0.2033,-0.2055,-0.2076,-0.2098,-0.2107,-0.2113,-0.2124,-0.2122,-0.2132,-0.2136,-0.2152,-0.2161,-0.2162,-0.2181,-0.2179,-0.218,-0.2183,-0.2183,-0.2183,-0.2175,-0.2167,0,0,0,0,0,-0.2,-0.2014,-0.2044,-0.206,-0.2072,-0.2091,-0.2102,-0.211,-0.2125,-0.2128,-0.2141,-0.2149,-0.2157,-0.2168,-0.2178,-0.2202,-0.2191,-0.2207,-0.2207,-0.2207,-0.2203,-0.2189,-0.2187,-0.2205,-0.2205,-0.2205,0,0,-0.1998,-0.2016,-0.2024,-0.2057,-0.2072,-0.2094,-0.2095,-0.2117,-0.2129,-0.2134,-0.215,-0.2154,-0.2162,-0.2176,-0.2184,-0.2186,-0.2195,-0.2206,-0.2207,-0.2203,-0.2188,-0.2187,-0.2185,-0.2205,-0.2205,-0.2205,0,0,-0.2002,-0.2019,-0.2032,-0.2053,-0.2083,-0.2098,-0.2106,-0.2133,-0.2137,-0.216,-0.2155,-0.2157,-0.2187,-0.2182,-0.2185,-0.2193,-0.2194,-0.2201,-0.2201,-0.2188,-0.2186,-0.2185,-0.2166,-0.2162,-0.2203,-0.2203,-0.2203,0,-0.1997,-0.202,-0.2041,-0.2062,-0.2078,-0.21,-0.212,-0.2134,-0.2161,-0.2165,-0.2165,-0.2179,-0.2185,-0.2189,-0.2185,-0.2193,-0.2186,-0.2205,-0.2188,-0.2186,-0.2185,-0.2165,-0.2162,-0.2204,-0.2203,-0.2203,-0.2203,0,-0.2011,-0.2032,-0.2043,-0.2075,-0.2096,-0.2117,-0.2144,-0.2161,-0.217,-0.2181,-0.2189,-0.2189,-0.2194,-0.2195,-0.2195,-0.2188,-0.2186,-0.2188,-0.219,-0.2183,-0.2163,-0.2159,-0.2204,-0.2204,-0.2204,-0.2204,0,0,-0.1988,-0.2043,-0.2044,-0.2061,-0.2104,-0.2121,-0.2147,-0.2173,-0.2185,-0.2199,-0.2207,-0.2205,-0.2201,-0.2203,-0.2199,-0.2186,-0.2164,-0.2185,-0.2184,-0.2168,-0.2132,-0.2053,-0.2041,-0.217,-0.2169,-0.2168,-0.2122,0,-0.1989,-0.2026,-0.2054,-0.2085,-0.2106,-0.2138,-0.216,-0.2185,-0.2202,-0.2218,-0.2211,-0.2217,-0.2207,-0.2208,-0.2193,-0.218,-0.2155,-0.2176,-0.2138,-0.2136,-0.2069,-0.2034,-0.1898,-0.1838,-0.2118,-0.2117,-0.2117,0,-0.1985,-0.2011,-0.2042,-0.2091,-0.2103,-0.2123,-0.2158,-0.2183,-0.2211,-0.2226,-0.223,-0.2232,-0.222,-0.2208,-0.217,-0.2189,-0.2154,-0.2134,-0.2132,-0.2052,-0.205,-0.189,-0.182,-0.211,-0.211,-0.2111,-0.2111,0,-0.1943,-0.1999,-0.202,-0.2037,-0.2096,-0.211,-0.2139,-0.2175,-0.2194,-0.2225,-0.2236,-0.2235,-0.2226,-0.2197,-0.2154,-0.2168,-0.2103,-0.2119,-0.2008,-0.2002,-0.1873,-0.1856,-0.2067,-0.2067,-0.2067,-0.2067,-0.2067,0,-0.1924,-0.1939,-0.2001,-0.2009,-0.2033,-0.2084,-0.2106,-0.2141,-0.2182,-0.2193,-0.2228,-0.222,-0.2221,-0.2189,-0.2155,-0.206,-0.2099,-0.199,-0.1977,-0.1871,-0.1855,-0.2085,-0.2087,-0.2065,-0.2066,-0.2066,-0.2066,0,-0.1865,-0.1911,-0.1936,-0.1995,-0.2011,-0.2023,-0.2081,-0.2097,-0.2149,-0.2164,-0.2172,-0.2204,-0.216,-0.2139,-0.2087,-0.2041,-0.1976,-0.1926,-0.1796,-0.1767,-0.1888,-0.1892,-0.1809,-0.1805,-0.1802,-0.18,-0.1798,0,-0.1838,-0.1845,-0.1904,-0.1915,-0.1937,-0.1969,-0.1989,-0.2061,-0.2082,-0.2134,-0.2131,-0.2115,-0.2068,-0.1974,-0.1893,-0.1804,-0.1873,-0.1632,-0.1622,-0.1862,-0.1858,-0.1867,-0.1874,-0.1458,-0.1453,-0.145,-0.1447,0,-0.177,-0.1792,-0.1809,-0.1835,-0.1857,-0.1882,-0.1918,-0.1929,-0.2005,-0.2014,-0.2003,-0.1971,-0.1893,-0.1734,-0.1633,-0.1571,-0.1644,-0.1551,-0.1821,-0.1546,-0.1527,-0.1526,-0.1545,-0.1413,-0.1416,-0.1419,-0.1421,-0.1422,-0.1705,-0.1701,-0.1723,-0.1734,-0.1762,-0.1762,-0.1734,-0.1779,-0.1775,-0.175,-0.181,-0.1708,-0.1688,-0.1447,-0.1353,-0.1282,-0.1398,-0.1344,-0.1357,-0.1374,-0.1343,-0.132,-0.1161,-0.1163,-0.1165,-0.1166,-0.1168,0,-0.1609,-0.1611,-0.1621,-0.162,-0.1595,-0.165,-0.1656,-0.16,-0.1537,-0.1548,-0.1499,-0.1316,-0.1201,-0.1184,-0.1016,-0.0978,-0.0987,-0.0942,-0.0962,-0.0995,-0.1025,-0.0978,-0.0699,-0.0697,-0.0696,-0.0695,0,0,-0.1555,-0.1519,-0.1522,-0.1436,-0.1436,-0.1351,-0.132,-0.1262,-0.1235,-0.1129,-0.1075,-0.1135,-0.1155,-0.0933,-0.0873,-0.0758,-0.0873,-0.0719,-0.1095,-0.1153,-0.1181,-0.1255,-0.1219,0,0,0,0,0]},{"header":{"parameterUnit":"m.s-1","parameterCategory":2,"la1":30.2991,"la2":30.254,"lo1":-89.0895,"lo2":-89.0444,"dy":0.0017,"dx":0.0017,"nx":28,"ny":28,"refTime":"2023-08-29T09:00:00:Z","depth":"2","parameterNumber":3,"parameterNumberName":"V-component_of_CURRENTS"},"data":[0,0,0,0,0,0,0,0,0,0,0,0,0,0,0,0,0,0,0,0,0,0,0,0,0,0,0,0,0,0,0,0,0,0,0,0,0,0,0,0,0,0,0,0,0,0,0,0,0,0,0,0,0,0,0,0,0,0,-0.0302,-0.0302,0,-0.025,-0.0249,-0.0248,-0.02,-0.02,-0.0199,-0.0199,-0.0085,-0.0083,-0.008,0,0,0,0,0,0,0,0,0,0,0,0,0,-0.0323,-0.0323,-0.0302,-0.0302,-0.0301,-0.025,-0.0249,-0.0248,-0.02,-0.02,-0.0199,-0.0198,-0.0086,-0.0083,-0.008,0,0,0,0,0,0,0,0,0,0,0,0,0,-0.0296,-0.0323,-0.0302,-0.0272,-0.0269,-0.025,-0.0249,-0.0248,-0.02,-0.02,-0.0199,-0.0198,-0.0087,-0.0083,-0.008,-0.007,0,0,-0.0068,-0.0066,0,0,0,0,0,0,0,0,-0.0298,-0.0295,-0.0277,-0.0274,-0.027,-0.0232,-0.0215,-0.0186,-0.0201,-0.0225,-0.0199,-0.0198,-0.013,-0.0123,-0.0114,-0.0065,-0.006,-0.0068,-0.0065,-0.0064,-0.0062,0,0,0,0,0,0,0,-0.03,-0.0297,-0.028,-0.0276,-0.0272,-0.0248,-0.0244,-0.0209,-0.018,-0.0223,-0.022,-0.0216,-0.0127,-0.0117,-0.011,-0.0059,-0.0068,-0.0064,-0.0062,-0.006,0.0004,0.0003,0,0,0,0,0,0,-0.0311,-0.0299,-0.0282,-0.0279,-0.0284,-0.0249,-0.0243,-0.0244,-0.0182,-0.0172,-0.0216,-0.0214,-0.0124,-0.0115,-0.0106,-0.0085,-0.0064,-0.006,-0.0058,0.0005,0.0004,0.0003,0,0,0,0,0,0,-0.0312,-0.031,-0.0284,-0.0288,-0.0283,-0.0249,-0.025,-0.0243,-0.0232,-0.0178,-0.0167,-0.0212,-0.0123,-0.0111,-0.0085,-0.008,-0.0058,-0.0055,0.0005,0.0004,0.0004,-0.0047,0,0,0,0,0,0,-0.0313,-0.0311,-0.0317,-0.0289,-0.0284,-0.0279,-0.0251,-0.0243,-0.0231,-0.0227,-0.017,-0.0159,-0.0122,-0.0091,-0.0081,-0.0075,-0.0052,0.0006,0.0005,0.0004,-0.0044,-0.0049,-0.0053,0,0,0,0,0,-0.0314,-0.0328,-0.0317,-0.0315,-0.0292,-0.0279,-0.0274,-0.0246,-0.0232,-0.0232,-0.0199,-0.0161,-0.0091,-0.0089,-0.0077,-0.0069,0.0007,0.0005,0.0004,-0.0042,-0.0048,-0.0053,0,0,0,0,0,0,-0.0341,-0.0323,-0.0312,-0.0319,-0.0303,-0.0272,-0.0271,-0.0252,-0.0226,-0.0222,-0.0169,-0.0156,-0.0132,-0.01,-0.0099,-0.0056,-0.0036,-0.0035,-0.0075,-0.008,-0.0084,-0.0087,-0.0049,0,0,0,0,0,-0.0351,-0.0355,-0.0332,-0.0339,-0.0333,-0.0303,-0.0295,-0.0277,-0.0251,-0.0239,-0.02,-0.0161,-0.0129,-0.0105,-0.0075,-0.005,-0.0012,-0.0038,-0.0043,-0.0047,-0.0043,0.0007,0.0008,-0.0001,-0.0001,-0.0001,0,0,-0.0362,-0.0355,-0.0356,-0.0345,-0.0329,-0.0327,-0.0296,-0.029,-0.0282,-0.023,-0.0211,-0.0178,-0.013,-0.0105,-0.009,-0.0074,-0.0026,-0.0049,-0.0052,-0.0046,0.0006,0.0007,0.0008,-0.0002,-0.0002,-0.0002,0,0,-0.0391,-0.0382,-0.0395,-0.0385,-0.037,-0.035,-0.0351,-0.0323,-0.0305,-0.0287,-0.0248,-0.0215,-0.0169,-0.0128,-0.0102,-0.0114,-0.0058,-0.0107,-0.012,-0.0072,-0.007,-0.0068,-0.0023,-0.0017,-0.0101,-0.0101,-0.0101,0,-0.0406,-0.0419,-0.0397,-0.0406,-0.0401,-0.0364,-0.0373,-0.0351,-0.0317,-0.03,-0.0289,-0.0217,-0.0176,-0.0132,-0.0137,-0.0121,-0.0089,-0.0102,-0.0077,-0.0074,-0.0071,-0.0025,-0.0018,-0.0104,-0.0104,-0.0103,-0.0103,0,-0.0443,-0.0451,-0.0459,-0.0456,-0.0446,-0.045,-0.0417,-0.0404,-0.0378,-0.0347,-0.0307,-0.0256,-0.0209,-0.0192,-0.0165,-0.0125,-0.0108,-0.0094,-0.0061,-0.0073,-0.0024,-0.0015,-0.0108,-0.0107,-0.0106,-0.0105,0,0,-0.0481,-0.0485,-0.0488,-0.0494,-0.0474,-0.0471,-0.0458,-0.043,-0.0416,-0.0374,-0.0347,-0.029,-0.0256,-0.0225,-0.0183,-0.0136,-0.009,-0.011,-0.0106,-0.0063,0.0015,0.0045,0.0058,-0.0073,-0.0071,-0.007,0.0039,0,-0.0516,-0.0551,-0.0535,-0.0555,-0.0567,-0.0528,-0.0517,-0.0484,-0.0445,-0.0409,-0.034,-0.0303,-0.0269,-0.0248,-0.0196,-0.0115,-0.0068,-0.0121,0.0018,0.0022,0.0053,0.0069,0.0044,0.0141,0.0049,0.005,0.0051,0,-0.0557,-0.0575,-0.0607,-0.0605,-0.0605,-0.0607,-0.0579,-0.0563,-0.0496,-0.0464,-0.0406,-0.0351,-0.0272,-0.025,-0.011,-0.0146,-0.0073,-0.0011,-0.0005,0.005,0.0069,0.0139,0.0161,0.0067,0.0066,0.0064,0.0063,0,-0.0602,-0.0621,-0.065,-0.0652,-0.0643,-0.0645,-0.0634,-0.0583,-0.0565,-0.0496,-0.0471,-0.0372,-0.0316,-0.0215,-0.0084,-0.0097,0.0073,0.0074,0.017,0.0173,0.0194,0.0197,0.0167,0.0167,0.0167,0.0166,0.0166,0,-0.0647,-0.0668,-0.0677,-0.0694,-0.0721,-0.0693,-0.0699,-0.0671,-0.0619,-0.059,-0.0506,-0.0453,-0.0305,-0.019,-0.0084,0.008,0.0077,0.0178,0.0208,0.0175,0.0174,0.0142,0.0137,0.0171,0.017,0.0169,0.0168,0,-0.0691,-0.0696,-0.0731,-0.074,-0.0746,-0.0766,-0.0757,-0.0751,-0.0698,-0.0656,-0.0637,-0.05,-0.0344,-0.0193,-0.0006,0.0087,0.0231,0.0285,0.0236,0.0258,0.0297,0.0289,0.0406,0.0408,0.041,0.0411,0.0412,0,-0.0717,-0.0741,-0.0777,-0.0803,-0.0812,-0.0833,-0.0843,-0.0801,-0.0783,-0.0678,-0.0654,-0.0499,-0.0368,-0.0082,0.0104,0.0305,0.0292,0.0391,0.0365,0.0307,0.0325,0.0313,0.0303,0.0372,0.0373,0.0374,0.0374,0,-0.0762,-0.0775,-0.0805,-0.0866,-0.0893,-0.0915,-0.0919,-0.0913,-0.0844,-0.0781,-0.0656,-0.0542,-0.0268,-0.003,0.0221,0.0325,0.0357,0.0412,0.0383,0.031,0.0283,0.0297,0.0287,0.038,0.038,0.0379,0.0379,0.0379,-0.079,-0.0828,-0.0871,-0.0923,-0.0956,-0.0978,-0.0979,-0.0947,-0.0896,-0.0762,-0.0658,-0.0449,-0.024,0.0139,0.0303,0.0447,0.0438,0.0472,0.0467,0.0462,0.0433,0.041,0.0525,0.0526,0.0526,0.0526,0.0526,0,-0.0825,-0.0867,-0.0925,-0.0979,-0.1012,-0.1018,-0.1009,-0.0967,-0.0884,-0.0735,-0.058,-0.0321,-0.0061,0.0146,0.0387,0.0527,0.0495,0.0537,0.0471,0.0465,0.046,0.0427,0.0521,0.0521,0.0522,0.0522,0,0,-0.0845,-0.0908,-0.0939,-0.1006,-0.1038,-0.1046,-0.1029,-0.0938,-0.082,-0.0642,-0.0474,-0.027,-0.0029,0.0144,0.0307,0.0428,0.0406,0.0429,0.0418,0.0315,0.0308,0.0408,0.035,0,0,0,0,0]}],[{"header":{"parameterUnit":"m.s-1","parameterCategory":2,"la1":30.2991,"la2":30.254,"lo1":-89.0895,"lo2":-89.0444,"dy":0.0017,"dx":0.0017,"nx":28,"ny":28,"refTime":"2023-08-29T09:00:00:Z","depth":"4","parameterNumber":2,"parameterNumberName":"U-component_of_CURRENTS"},"data":[0,0,0,0,0,0,0,0,0,0,0,0,0,0,0,0,0,0,0,0,0,0,0,0,0,0,0,0,0,0,0,0,0,0,0,0,0,0,0,0,0,0,0,0,0,0,0,0,0,0,0,0,0,0,0,0,0,0,-0.1474,-0.1474,0,-0.1533,-0.1534,-0.1534,-0.1573,-0.1574,-0.1574,-0.1574,-0.1671,-0.1674,-0.1676,0,0,0,0,0,0,0,0,0,0,0,0,0,-0.1392,-0.1393,-0.1473,-0.1474,-0.1475,-0.1533,-0.1534,-0.1534,-0.1573,-0.1574,-0.1574,-0.1574,-0.1671,-0.1673,-0.1676,0,0,0,0,0,0,0,0,0,0,0,0,0,-0.1436,-0.1394,-0.1473,-0.1502,-0.1506,-0.1533,-0.1534,-0.1534,-0.1573,-0.1574,-0.1574,-0.1575,-0.167,-0.1673,-0.1676,-0.1686,0,0,-0.1687,-0.1688,0,0,0,0,0,0,0,0,-0.1433,-0.1439,-0.1497,-0.1501,-0.1504,-0.1547,-0.1541,-0.1588,-0.1573,-0.1546,-0.1574,-0.1575,-0.1634,-0.164,-0.1648,-0.1691,-0.1695,-0.1687,-0.1689,-0.169,-0.1691,0,0,0,0,0,0,0,-0.143,-0.1436,-0.1496,-0.1498,-0.1502,-0.1512,-0.1519,-0.1549,-0.1586,-0.1549,-0.1552,-0.156,-0.1636,-0.1644,-0.1651,-0.1696,-0.1687,-0.169,-0.1692,-0.1693,-0.1784,-0.1784,0,0,0,0,0,0,-0.1425,-0.1434,-0.1494,-0.1498,-0.1471,-0.1513,-0.1521,-0.1532,-0.1585,-0.1594,-0.156,-0.1562,-0.1638,-0.1647,-0.1654,-0.1715,-0.169,-0.1694,-0.1696,-0.1784,-0.1784,-0.1785,0,0,0,0,0,0,-0.1423,-0.143,-0.1492,-0.1468,-0.1476,-0.1514,-0.1526,-0.1533,-0.1567,-0.1593,-0.1602,-0.159,-0.1639,-0.1649,-0.1696,-0.1717,-0.1695,-0.1698,-0.1783,-0.1784,-0.1784,-0.1806,0,0,0,0,0,0,-0.1421,-0.1429,-0.1448,-0.1467,-0.1478,-0.1523,-0.1526,-0.1534,-0.157,-0.1575,-0.1622,-0.163,-0.164,-0.169,-0.1699,-0.1721,-0.1701,-0.1783,-0.1784,-0.1784,-0.1805,-0.1807,-0.181,0,0,0,0,0,-0.1418,-0.1436,-0.1448,-0.1456,-0.1498,-0.1524,-0.153,-0.1557,-0.1572,-0.159,-0.1618,-0.163,-0.1701,-0.1694,-0.1704,-0.1727,-0.1782,-0.1783,-0.1784,-0.1804,-0.1807,-0.1809,0,0,0,0,0,0,-0.1413,-0.1443,-0.1456,-0.1485,-0.151,-0.1531,-0.1555,-0.1572,-0.1609,-0.1621,-0.1642,-0.1652,-0.1697,-0.1708,-0.17,-0.1753,-0.1741,-0.1744,-0.1753,-0.1756,-0.1758,-0.1747,-0.1704,0,0,0,0,0,-0.142,-0.1442,-0.1469,-0.1494,-0.1509,-0.1537,-0.1557,-0.1576,-0.1604,-0.1622,-0.1654,-0.1682,-0.1703,-0.1728,-0.1749,-0.1787,-0.1772,-0.1805,-0.1807,-0.1809,-0.1806,-0.1793,-0.1793,-0.1788,-0.1788,-0.1788,0,0,-0.1426,-0.1445,-0.146,-0.1496,-0.1518,-0.1544,-0.1551,-0.1588,-0.1613,-0.1628,-0.168,-0.1697,-0.1714,-0.1749,-0.177,-0.1767,-0.1803,-0.1811,-0.1812,-0.1807,-0.1794,-0.1794,-0.1795,-0.1788,-0.1788,-0.1788,0,0,-0.1438,-0.1467,-0.1488,-0.1512,-0.1551,-0.1567,-0.1584,-0.1621,-0.1644,-0.169,-0.1698,-0.1722,-0.1776,-0.1778,-0.1787,-0.1816,-0.1813,-0.1833,-0.1844,-0.1833,-0.1833,-0.1833,-0.1812,-0.181,-0.1838,-0.1838,-0.1838,0,-0.1447,-0.1475,-0.1499,-0.1523,-0.1547,-0.158,-0.1607,-0.1633,-0.1682,-0.1699,-0.1714,-0.1764,-0.1782,-0.1802,-0.181,-0.1821,-0.1813,-0.1835,-0.1835,-0.1835,-0.1834,-0.1813,-0.181,-0.1839,-0.1839,-0.1839,-0.1838,0,-0.1464,-0.1499,-0.1514,-0.1555,-0.1582,-0.1614,-0.1648,-0.1685,-0.172,-0.1739,-0.1779,-0.1795,-0.182,-0.183,-0.1834,-0.1843,-0.1837,-0.1836,-0.1827,-0.1836,-0.1813,-0.181,-0.184,-0.184,-0.184,-0.1839,0,0,-0.1447,-0.1515,-0.1522,-0.1549,-0.1604,-0.1625,-0.1672,-0.1712,-0.1741,-0.1783,-0.1811,-0.1837,-0.1845,-0.1853,-0.1858,-0.185,-0.1839,-0.1849,-0.1848,-0.1826,-0.1811,-0.1694,-0.1679,-0.1845,-0.1845,-0.1845,-0.1795,0,-0.1456,-0.1503,-0.1537,-0.1588,-0.1615,-0.1662,-0.1698,-0.174,-0.1777,-0.1814,-0.1826,-0.1855,-0.1854,-0.187,-0.1862,-0.1852,-0.1833,-0.1852,-0.1807,-0.1805,-0.1698,-0.1672,-0.1844,-0.1793,-0.1792,-0.1792,-0.1791,0,-0.1453,-0.1488,-0.1539,-0.1605,-0.1622,-0.1659,-0.1719,-0.1757,-0.1807,-0.1837,-0.1863,-0.1878,-0.1883,-0.1877,-0.185,-0.1868,-0.1838,-0.1819,-0.1817,-0.1695,-0.1681,-0.1782,-0.1785,-0.1786,-0.1786,-0.1787,-0.1787,0,-0.141,-0.1485,-0.1527,-0.1551,-0.163,-0.1664,-0.1707,-0.1763,-0.1793,-0.1848,-0.187,-0.1887,-0.1894,-0.1871,-0.1837,-0.1851,-0.1791,-0.1804,-0.1662,-0.1654,-0.1769,-0.1769,-0.1761,-0.1762,-0.1762,-0.1762,-0.1762,0,-0.1386,-0.1423,-0.1517,-0.1537,-0.1586,-0.1648,-0.1698,-0.1744,-0.1802,-0.1819,-0.1874,-0.187,-0.1893,-0.1866,-0.1836,-0.1728,-0.1787,-0.1645,-0.1625,-0.1779,-0.1781,-0.1766,-0.1767,-0.176,-0.176,-0.1761,-0.1761,0,-0.1324,-0.1391,-0.1443,-0.1536,-0.1567,-0.16,-0.1686,-0.1711,-0.1781,-0.1804,-0.1821,-0.1859,-0.1816,-0.181,-0.1764,-0.1702,-0.1629,-0.1573,-0.1728,-0.1721,-0.1504,-0.1507,-0.1412,-0.1407,-0.1403,-0.14,-0.1397,0,-0.1294,-0.1318,-0.1425,-0.1455,-0.15,-0.1563,-0.1598,-0.1686,-0.1706,-0.1767,-0.1758,-0.1755,-0.1759,-0.1591,-0.1609,-0.1528,-0.1505,-0.1467,-0.1487,-0.1474,-0.1465,-0.1474,-0.1483,-0.139,-0.1389,-0.1388,-0.1387,0,-0.1226,-0.1279,-0.1319,-0.1381,-0.143,-0.1473,-0.1528,-0.1529,-0.161,-0.1696,-0.1636,-0.1595,-0.1539,-0.1494,-0.1435,-0.1383,-0.1498,-0.1425,-0.1433,-0.1452,-0.1447,-0.1444,-0.1457,-0.1373,-0.1375,-0.1377,-0.1378,0,-0.1173,-0.1186,-0.1245,-0.1282,-0.1343,-0.1345,-0.1395,-0.1402,-0.1428,-0.1506,-0.1477,-0.1474,-0.1516,-0.1415,-0.1363,-0.1301,-0.1282,-0.1246,-0.1264,-0.1279,-0.1257,-0.1232,-0.1055,0,0,0,0,0,-0.1109,-0.1105,-0.1138,-0.1166,-0.1221,-0.1247,-0.1326,-0.1377,-0.1459,-0.1376,-0.1422,-0.1362,-0.1279,-0.1282,-0.1184,-0.1297,-0.1289,-0.118,-0.1258,-0.1296,-0.1312,-0.1297,0,0,0,0,0,0,-0.1064,-0.109,-0.1095,-0.1051,-0.1047,-0.1084,-0.1125,-0.1188,-0.1152,-0.1243,-0.1199,-0.1273,-0.1208,-0.1298,-0.115,-0.115,-0.117,-0.1194,-0.119,-0.1287,-0.1301,-0.1314,-0.1305,0,0,0,0,0]},{"header":{"parameterUnit":"m.s-1","parameterCategory":2,"la1":30.2991,"la2":30.254,"lo1":-89.0895,"lo2":-89.0444,"dy":0.0017,"dx":0.0017,"nx":28,"ny":28,"refTime":"2023-08-29T09:00:00:Z","depth":"4","parameterNumber":3,"parameterNumberName":"V-component_of_CURRENTS"},"data":[0,0,0,0,0,0,0,0,0,0,0,0,0,0,0,0,0,0,0,0,0,0,0,0,0,0,0,0,0,0,0,0,0,0,0,0,0,0,0,0,0,0,0,0,0,0,0,0,0,0,0,0,0,0,0,0,0,0,-0.0235,-0.0235,0,-0.0205,-0.0204,-0.0204,-0.0172,-0.0172,-0.0171,-0.0171,-0.0091,-0.0089,-0.0087,0,0,0,0,0,0,0,0,0,0,0,0,0,-0.0239,-0.0239,-0.0235,-0.0235,-0.0234,-0.0205,-0.0204,-0.0204,-0.0172,-0.0171,-0.0171,-0.0171,-0.0091,-0.0089,-0.0087,0,0,0,0,0,0,0,0,0,0,0,0,0,-0.0225,-0.0239,-0.0235,-0.0216,-0.0214,-0.0205,-0.0204,-0.0204,-0.0172,-0.0171,-0.0171,-0.017,-0.0092,-0.009,-0.0087,-0.0081,0,0,-0.0079,-0.0077,0,0,0,0,0,0,0,0,-0.0226,-0.0225,-0.0219,-0.0217,-0.0215,-0.0192,-0.0176,-0.016,-0.0172,-0.0187,-0.0171,-0.017,-0.0121,-0.0116,-0.0111,-0.0077,-0.0074,-0.0078,-0.0077,-0.0076,-0.0075,0,0,0,0,0,0,0,-0.0227,-0.0225,-0.0222,-0.0219,-0.0216,-0.02,-0.0197,-0.0173,-0.0156,-0.0185,-0.0183,-0.0182,-0.012,-0.0114,-0.0109,-0.0073,-0.0078,-0.0076,-0.0074,-0.0073,-0.0035,-0.0035,0,0,0,0,0,0,-0.0234,-0.0227,-0.0223,-0.0221,-0.022,-0.02,-0.0197,-0.0199,-0.0157,-0.0151,-0.0182,-0.018,-0.0119,-0.0112,-0.0106,-0.0091,-0.0076,-0.0073,-0.0072,-0.0034,-0.0035,-0.0036,0,0,0,0,0,0,-0.0235,-0.0235,-0.0224,-0.0224,-0.0221,-0.0201,-0.0203,-0.0199,-0.0194,-0.0155,-0.0148,-0.0182,-0.0118,-0.0109,-0.0094,-0.0088,-0.0072,-0.0069,-0.0033,-0.0034,-0.0035,-0.0065,0,0,0,0,0,0,-0.0235,-0.0235,-0.0242,-0.0224,-0.0222,-0.0225,-0.0204,-0.0199,-0.0195,-0.0192,-0.0153,-0.0145,-0.0117,-0.0098,-0.0091,-0.0084,-0.0067,-0.0033,-0.0034,-0.0035,-0.0064,-0.0067,-0.007,0,0,0,0,0,-0.0235,-0.0249,-0.0243,-0.0242,-0.0231,-0.0225,-0.0222,-0.0205,-0.0195,-0.0198,-0.0175,-0.0146,-0.01,-0.0097,-0.0088,-0.008,-0.0032,-0.0034,-0.0035,-0.0062,-0.0066,-0.007,0,0,0,0,0,0,-0.0255,-0.0246,-0.0239,-0.0249,-0.024,-0.022,-0.0224,-0.0211,-0.0195,-0.0193,-0.0154,-0.0145,-0.013,-0.0107,-0.0105,-0.0075,-0.0061,-0.0061,-0.0084,-0.0088,-0.0091,-0.0088,-0.0065,0,0,0,0,0,-0.0264,-0.0271,-0.0257,-0.0266,-0.0263,-0.0245,-0.0241,-0.023,-0.0213,-0.0206,-0.018,-0.0153,-0.013,-0.0112,-0.0093,-0.0074,-0.0043,-0.0065,-0.0068,-0.0071,-0.0064,-0.0016,-0.0014,-0.004,-0.004,-0.004,0,0,-0.0273,-0.027,-0.0274,-0.027,-0.0262,-0.0262,-0.0241,-0.0241,-0.0235,-0.0199,-0.0188,-0.0167,-0.0131,-0.0113,-0.0103,-0.0091,-0.0051,-0.0072,-0.0075,-0.0066,-0.0017,-0.0015,-0.0012,-0.0041,-0.0041,-0.004,0,0,-0.0296,-0.0295,-0.0306,-0.0301,-0.0295,-0.0282,-0.0284,-0.0268,-0.0256,-0.0247,-0.0218,-0.0193,-0.0165,-0.0129,-0.0109,-0.0119,-0.0076,-0.0118,-0.012,-0.0074,-0.0071,-0.0068,-0.0036,-0.003,-0.0112,-0.0112,-0.0112,0,-0.0308,-0.0319,-0.0309,-0.0316,-0.0314,-0.0293,-0.03,-0.0285,-0.0265,-0.0252,-0.0249,-0.0197,-0.0167,-0.0126,-0.013,-0.0122,-0.0098,-0.0105,-0.0076,-0.0073,-0.0069,-0.0037,-0.003,-0.0113,-0.0113,-0.0113,-0.0113,0,-0.0334,-0.0342,-0.035,-0.035,-0.0347,-0.0352,-0.033,-0.0323,-0.0309,-0.0286,-0.0255,-0.0218,-0.0181,-0.017,-0.0151,-0.0109,-0.0103,-0.0091,-0.0063,-0.0068,-0.0035,-0.0026,-0.0116,-0.0115,-0.0114,-0.0114,0,0,-0.0359,-0.0367,-0.037,-0.0375,-0.0365,-0.0366,-0.0356,-0.0336,-0.0326,-0.0298,-0.0274,-0.0229,-0.0204,-0.018,-0.0148,-0.0104,-0.0061,-0.0089,-0.0086,-0.0053,0.0029,0.0018,0.0026,-0.0045,-0.0043,-0.0042,0.0037,0,-0.0382,-0.0409,-0.04,-0.0416,-0.0425,-0.0402,-0.0394,-0.0371,-0.0346,-0.0319,-0.0262,-0.0235,-0.0208,-0.0194,-0.0144,-0.0083,-0.004,-0.0084,0.0024,0.0027,0.0024,0.0036,-0.0037,0.0044,0.0046,0.0047,0.0048,0,-0.0406,-0.0421,-0.0447,-0.0449,-0.045,-0.0456,-0.0439,-0.0428,-0.0377,-0.0355,-0.0306,-0.0266,-0.0195,-0.0181,-0.0061,-0.0094,-0.0036,0.0013,0.0018,0.0028,0.0032,0.0052,0.0063,0.0062,0.0061,0.006,0.0059,0,-0.0431,-0.045,-0.0474,-0.0476,-0.0475,-0.0481,-0.0478,-0.0443,-0.0432,-0.0378,-0.0362,-0.0274,-0.0234,-0.0143,-0.0044,-0.0052,0.0083,0.0088,0.0136,0.0135,0.0135,0.0131,0.0174,0.0174,0.0174,0.0174,0.0174,0,-0.0453,-0.0472,-0.0494,-0.0507,-0.0534,-0.0518,-0.053,-0.051,-0.0476,-0.0457,-0.0387,-0.0348,-0.0223,-0.0133,-0.0044,0.0072,0.0088,0.0143,0.0161,0.0117,0.011,0.0141,0.0136,0.0177,0.0176,0.0176,0.0175,0,-0.0473,-0.0486,-0.0518,-0.0538,-0.055,-0.057,-0.0581,-0.058,-0.0545,-0.0518,-0.0503,-0.0396,-0.0277,-0.0153,0.0,0.0066,0.0179,0.0214,0.0152,0.0164,0.0199,0.0191,0.0278,0.0278,0.0278,0.0279,0.0279,0,-0.0483,-0.0503,-0.0553,-0.0583,-0.0599,-0.0628,-0.0645,-0.0622,-0.0613,-0.0543,-0.0524,-0.0412,-0.033,-0.0111,0.0009,0.018,0.02,0.0251,0.0234,0.0203,0.0212,0.0204,0.0196,0.0279,0.0279,0.028,0.028,0,-0.0501,-0.0526,-0.0555,-0.0623,-0.066,-0.0689,-0.0706,-0.0703,-0.0659,-0.0631,-0.0521,-0.0405,-0.0268,-0.0105,0.0026,0.0146,0.0216,0.0255,0.0255,0.0239,0.0206,0.0213,0.0205,0.0281,0.0281,0.0281,0.0281,0,-0.0516,-0.0548,-0.0599,-0.0652,-0.0703,-0.0729,-0.0736,-0.0705,-0.0682,-0.0592,-0.0556,-0.0402,-0.0306,-0.0123,-0.0001,0.0115,0.0141,0.0172,0.0177,0.0177,0.0119,0.006,0.0115,0,0,0,0,0,-0.0525,-0.0566,-0.0623,-0.0679,-0.0729,-0.0752,-0.0763,-0.0754,-0.0713,-0.0635,-0.0589,-0.0456,-0.0253,-0.0159,-0.0043,-0.0017,0.0139,0.012,0.0171,0.0288,0.0286,0.0234,0,0,0,0,0,0,-0.0534,-0.0592,-0.0623,-0.0686,-0.0724,-0.0768,-0.0773,-0.0747,-0.0688,-0.063,-0.0514,-0.0439,-0.024,-0.0317,-0.0042,-0.0008,0.0037,0.022,0.0223,0.0288,0.0287,0.0286,0.0232,0,0,0,0,0]}]]